Home   Weather   Altenburg   Past weeks

Flag for Germany Past Weather in Altenburg, Thuringia, Germany — Yesterday and Last 2 Weeks

Now
64 °F

Partly sunny.


Feels Like: 64 °F
Forecast: 51 / 67 °F
Wind: 12 mph from West

Location: Altenburg Nobitz

Current Time: Aug 20, 2017 at 2:01:17 pm

Latest Report: Aug 20, 2017 at 1:20 pm


Visibility: N/A

Pressure: 30.18 "Hg

Humidity: 60%

Dew Point: 50 °F

Location of AltenburgLocation

Past Weather in Altenburg — Graph

°F

Altenburg Temperature Yesterday

Maximum temperature yesterday: 70 °F (at 1:50 pm)
Minimum temperature yesterday: 63 °F (at 9:50 am)
Average temperature yesterday: 67 °F

High & Low Weather Summary for the Past Weeks

 TemperatureHumidityPressure
High82 °F (Aug 8, 2:50 pm)100% (Aug 11, 4:20 am)30.24 "Hg (Aug 11, 4:20 am)
Low57 °F (Aug 12, 12:20 am)32% (Aug 7, 4:50 pm)29.80 "Hg (Aug 8, 5:20 pm)
Average69 °F67%30.04 "Hg
* Reported Aug 5 12:20 pm — Aug 20 12:50 pm, Altenburg. Weather by CustomWeather, © 2017

Note: Actual official high and low records may vary slightly from our data, if they occured in-between our weather recording intervals... More about our weather records

Advertising

Altenburg Weather History for the Previous 24 Hours

Scroll right to see more
 ConditionsComfort  
Time TempWeatherWind HumidityBarometerVisibility
12:50 pm
Sun, Aug 20
64 °FPartly sunny.8 mph56%30.15 "HgN/A
12:20 pm63 °FPartly sunny.8 mph64%30.18 "HgN/A
11:50 am66 °FScattered clouds.9 mph60%30.18 "HgN/A
11:20 am64 °FScattered clouds.5 mph60%30.18 "HgN/A
10:50 am66 °FScattered clouds.8 mph64%30.18 "HgN/A
10:20 am63 °FPassing clouds.8 mph68%30.18 "HgN/A
9:20 am61 °FPassing clouds.7 mph77%30.18 "HgN/A
6:50 pm
Sat, Aug 19
66 °FSunny.8 mph49%30.07 "Hg10 mi
6:20 pm66 °FPassing clouds.9 mph46%30.07 "HgN/A
5:50 pm68 °FPassing clouds.12 mph46%30.07 "HgN/A
5:20 pm70 °FSunny.10 mph43%30.07 "Hg10 mi
4:50 pm70 °FSunny.14 mph40%30.07 "Hg10 mi
4:20 pm70 °FPassing clouds.13 mph40%30.07 "HgN/A
3:20 pm70 °FPassing clouds.10 mph50%30.07 "HgN/A
2:50 pm70 °FPassing clouds.8 mph46%30.07 "HgN/A
2:20 pm68 °FPassing clouds.10 mph49%30.07 "HgN/A
Weather by CustomWeather, © 2017

See weather overviewHow to use our weather pages